Lastest Insider Transactions Of Stocks
SymbolCompany NameInsider NameTitleDateTransationSharePriceAmountFile Date
SPGIS&P Global Inc.Kansler Adam JasonPresident, Market Intelligence2023-02-01Option Exercise11,290377.184,258,3622023-02-03 21:49:58
ESMTEngageSmart, Inc.O'Brien Kevin WilliamSee Remarks2023-02-01Option Exercise42,2680.0002023-02-03 21:48:46
CDNACareDx, Inc.Seeto ReginaldSee Remarks2023-02-01Sell2,81917.1548,3472023-02-03 21:47:01
CDNACareDx, Inc.Maag PeterDirectior2023-02-01Sell5,00017.1785,8302023-02-03 21:46:44
SPGIS&P Global Inc.Tavernier EdouardPresident, S&P Global Mobility2023-02-01Option Exercise5,312377.182,003,5802023-02-03 21:45:34
PLBYPLBY Group, Inc.Yaffe JamesDirectior2023-02-01Option Exercise9,9732.5625,4922023-02-03 21:45:10
PLBYPLBY Group, Inc.Barton LanceCFO2023-02-01Option Exercise92,8702.56237,3852023-02-03 21:44:49
PLBYPLBY Group, Inc.Kohn Bernhard L IIICEO & President2023-02-01Option Exercise502,3552.561,284,0702023-02-03 21:44:22
PLBYPLBY Group, Inc.HILL JULIANA FDirectior2023-02-01Option Exercise3,8142.569,7492023-02-03 21:44:03
SPGIS&P Global Inc.Moore SallyEVP, Global Head of Strategy2023-02-01Option Exercise3,187377.181,202,0732023-02-03 21:43:11
DOCSDoximity, Inc.Bryson AnnaChief Financial Officer2023-02-02Sell25,00040.001,000,0002023-02-03 21:42:12
CCLDCareCloud, Inc.Sharnak Lawrence StevenDirectior2023-02-02Option Exercise7,7500.0002023-02-03 21:30:22
CCLDCareCloud, Inc.MUNTER CAMERONDirectior2023-02-02Option Exercise7,7500.0002023-02-03 21:30:21
CCLDCareCloud, Inc.BUSQUET ANNEDirectior2023-02-02Option Exercise7,7500.0002023-02-03 21:30:18
CCLDCareCloud, Inc.DALY JOHN NDirectior2023-02-02Option Exercise7,7500.0002023-02-03 21:30:14
TMCITREACE MEDICAL CONCEPTS, INC.MOTT RICHARD WDirectior2023-02-02Sell4,01124.0096,2642023-02-03 21:00:16
VIRVir Biotechnology, Inc.SVF Endurance (Cayman) Ltd 10% Owner2023-02-01Sell148,63529.424,372,1752023-02-03 21:00:13
COMPCompass, Inc.Wahlers Scott R.Chief Accounting Officer2023-02-03Option Exercise3,3700.0002023-02-03 20:59:12
COMPCompass, Inc.Reffkin Robert L.Chairman and CEO2023-02-03Option Exercise179,4200.0002023-02-03 20:58:50
COMPCompass, Inc.Hart Gregory M.Chief Operating Officer2023-02-03Option Exercise17,2800.0002023-02-03 20:58:22
SWAVShockwave Medical, Inc.Phung TrinhVP, Finance2023-02-01Sell941187.23176,1832023-02-03 20:55:06
MRVLMarvell Technology, Inc.Koopmans ChrisEVP, Chief Operations Officer2023-02-02Sell8,00048.00384,0002023-02-03 20:50:16
IONMAssure Holdings Corp.Parsons Preston T 10% Owner2023-01-31Sell25,0000.297,1552023-02-03 20:45:42
ARESAres Management CorpRESSLER ANTONY PCo-Founder & Exec. Chairman 10% Owner2023-02-01Sell257,91285.2421,985,3182023-02-03 20:39:12
DALDELTA AIR LINES, INC.Carroll William CSVP, Fin & Controller2023-02-01Sell5,48140.01219,2952023-02-03 20:01:56
SGENSeagen Inc.DANSEY ROGER DPresident, R&D & CMO2023-02-02Sell783138.52108,4612023-02-03 20:01:47
BLZEBackblaze, Inc.Jones Charles J. 10% Owner2023-02-01Sell6,0007.3644,1602023-02-03 20:01:25
BLZEBackblaze, Inc.Patchel Francis PChief Financial Officer2022-08-23Sell7,8616.1248,1142023-02-03 20:01:07
CDNSCADENCE DESIGN SYSTEMS INCNisewaner KarnaCorporate VP, General Counsel2023-02-01Sell100181.7818,1782023-02-03 20:00:57
CKPTCheckpoint Therapeutics, Inc.GRAY WILLIAM GARRETTChief Financial Officer2023-02-01Sell3,1544.7915,1082023-02-03 20:00:44
BLZEBackblaze, Inc.Wilson Brian K 10% Owner2023-02-01Sell6,0007.3644,1602023-02-03 20:00:42
CKPTCheckpoint Therapeutics, Inc.Oliviero James F IIICEO, President and Director2023-02-01Sell10,2614.7748,9452023-02-03 20:00:26
BLZEBackblaze, Inc.Budman GlebCEO and Chairperson 10% Owner2023-02-01Sell6,0007.3644,1602023-02-03 20:00:22
BLZEBackblaze, Inc.Nufire Timothy MDirectior 10% Owner2023-02-01Sell6,0007.3644,1402023-02-03 19:59:59
BLZEBackblaze, Inc.Ng Kwok Hang 10% Owner2023-02-01Sell6,0007.3644,1602023-02-03 19:59:43
ATENA10 Networks, Inc.Becker BrianChief Financial Officer2023-02-02Option Exercise7,3070.0002023-02-03 19:48:52
ATENA10 Networks, Inc.Becker BrianChief Financial Officer2023-02-02Sell1,28715.8320,3732023-02-03 19:48:52
JBSSSANFILIPPO JOHN B & SON INCSanfilippo John EDirectior 10% Owner2023-02-01Buy4,23282.59349,5212023-02-03 19:47:05
ATENA10 Networks, Inc.BRUENING MATTHEW PEVP, Worldwide Sales & Mktg2023-02-02Option Exercise12,1790.0002023-02-03 19:46:42
ATENA10 Networks, Inc.BRUENING MATTHEW PEVP, Worldwide Sales & Mktg2023-02-02Sell1,52915.8324,2042023-02-03 19:46:42
JBSSSANFILIPPO JOHN B & SON INCSanfilippo LisaDirectior 10% Owner2023-02-01Buy4,23282.59349,5212023-02-03 19:46:22
ATENA10 Networks, Inc.Trivedi DhrupadChief Executive Officer2023-02-02Option Exercise48,7130.0002023-02-03 19:44:31
ATENA10 Networks, Inc.Trivedi DhrupadChief Executive Officer2023-02-02Sell7,27015.83115,0842023-02-03 19:44:31
SPROSpero Therapeutics, Inc.Keutzer TimothyChief Operating Officer2023-02-01Sell3,3941.866,3132023-02-03 19:43:51
SPROSpero Therapeutics, Inc.JOSEPH TAMARA LChief Legal Officer2023-02-01Sell3,3941.866,3132023-02-03 19:43:02
BKKTBakkt Holdings, Inc.Michael Gavin ConstantineCEO and President2023-02-01Sell340,0021.59540,7392023-02-03 19:42:40
PENPenumbra IncBose AraniDirectior2023-02-01Sell5,000254.211,271,0752023-02-03 19:41:50
SPROSpero Therapeutics, Inc.Shukla SathChief Financial Officer2023-02-01Sell9,5041.8317,3722023-02-03 19:41:41
JBSSSANFILIPPO JOHN B & SON INCSanfilippo James JDirectior 10% Owner2023-02-01Sell8,46482.59699,0422023-02-03 19:41:10
CDMOAvid Bioservices, Inc.Hancock Richard BDirectior2023-02-01Option Exercise5,0004.6723,3502023-02-03 19:39:41
CDMOAvid Bioservices, Inc.Hancock Richard BDirectior2023-02-01Sell5,00016.0280,0772023-02-03 19:39:41
PENPenumbra IncRoberts JohannaEVP, Gen. Counsel & Secretary2022-12-28Option Exercise5,75022.04126,7302023-02-03 19:37:38
COLMCOLUMBIA SPORTSWEAR COZanon CraigSVP Emerging Brands2023-02-01Option Exercise4820.0002023-02-03 19:33:41
COLMCOLUMBIA SPORTSWEAR COSwanson Jim AEVP & CFO2023-02-01Option Exercise2,1230.0002023-02-03 19:33:21
COLMCOLUMBIA SPORTSWEAR COSheerin TimSVP Global Wholesale2023-02-01Option Exercise8630.0002023-02-03 19:33:02
COLMCOLUMBIA SPORTSWEAR COPotter Steven M.EVP, CDIO2023-02-01Option Exercise8190.0002023-02-03 19:32:44
COLMCOLUMBIA SPORTSWEAR COLUTHER RICHELLE TEVP, CORP AFFAIRS & CHRO2023-02-01Option Exercise1,3460.0002023-02-03 19:32:27
COLMCOLUMBIA SPORTSWEAR COKulok LisaEVP Chief Supply Chain Officer2023-02-01Option Exercise9300.0002023-02-03 19:32:05
COLMCOLUMBIA SPORTSWEAR COBragdon Peter JEVP, CAO, Gen. Counsel2023-02-01Option Exercise8940.0002023-02-03 19:31:49
RMDRESMED INCDrexler KarenDirectior2023-02-02Sell594226.58134,5892023-02-03 19:30:52
REYNReynolds Consumer Products Inc.Estes Stephen C.Chief Administrative Officer2023-02-01Option Exercise4,9280.0002023-02-03 19:24:48
REYNReynolds Consumer Products Inc.McMahon Michael F.VP-Senior Sales Team2023-02-01Option Exercise1,6030.0002023-02-03 19:24:30
REYNReynolds Consumer Products Inc.Swartzberg Mark D.VP Investor Relations2023-02-01Option Exercise1,9630.0002023-02-03 19:24:09
REYNReynolds Consumer Products Inc.Miller Valerie ElizabethEVP-HR2023-02-01Option Exercise2,4900.0002023-02-03 19:23:50
REYNReynolds Consumer Products Inc.Graham Michael E.Chief Financial Officer2023-02-01Option Exercise11,8280.0002023-02-03 19:23:31
REYNReynolds Consumer Products Inc.Mayrhofer ChrisVP, Controller & CAO2023-02-01Option Exercise2,2640.0002023-02-03 19:23:10
REYNReynolds Consumer Products Inc.Lowe Nathan D.VP, Fin. Planning & Analysis2023-02-01Option Exercise6400.0002023-02-03 19:22:53
REYNReynolds Consumer Products Inc.Pace Stephan M.President, Sales Evolution2023-02-01Option Exercise6,5230.0002023-02-03 19:22:35
REYNReynolds Consumer Products Inc.MITCHELL V LANCEPresident and CEO2023-02-01Option Exercise40,7120.0002023-02-03 19:22:15
REYNReynolds Consumer Products Inc.Smith Lisa MPresident, Hefty Waste&Storage2023-02-01Option Exercise6,2440.0002023-02-03 19:21:57
REYNReynolds Consumer Products Inc.Corey ChristopherPresident, Presto Products2023-02-01Option Exercise6820.0002023-02-03 19:21:38
REYNReynolds Consumer Products Inc.Bishop Rachel RothePresident, Hefty Tableware2023-02-01Option Exercise7,0310.0002023-02-03 19:21:16
REYNReynolds Consumer Products Inc.Watson Clyde DavidChief Legal Counsel/Corp Sec2023-02-01Option Exercise1,1350.0002023-02-03 19:20:50
REYNReynolds Consumer Products Inc.Buckner Judith K.President, Reynolds Cook&Bake2023-02-01Option Exercise6,3130.0002023-02-03 19:20:18
REYNReynolds Consumer Products Inc.Fisher RitaChief Information Officer/EVP2023-02-01Option Exercise4,0540.0002023-02-03 19:19:52
SILKSilk Road Medical IncDavis Andrew S.Chief Commercial Officer2023-02-01Option Exercise6,7534.7331,9422023-02-03 19:19:38
SILKSilk Road Medical IncDavis Andrew S.Chief Commercial Officer2023-02-01Sell6,75354.05365,0002023-02-03 19:19:38
BMYBRISTOL MYERS SQUIBB COMeyers Gregory ScottEVP, Chief Digital & Tech Off.2023-02-01Option Exercise2,5430.0002023-02-03 19:18:47
BLFSBIOLIFE SOLUTIONS INCMathew Aby J.EVP & Chief Scientific Officer2023-02-01Option Exercise20,0002.0641,2002023-02-03 19:15:25
BLFSBIOLIFE SOLUTIONS INCMathew Aby J.EVP & Chief Scientific Officer2023-02-01Sell20,00023.86477,1602023-02-03 19:15:25
SILKSilk Road Medical IncChou Tony M.Directior2023-02-01Sell13,00855.00715,4402023-02-03 19:14:32
WWayfair Inc.Netzer ThomasChief Operating Officer2023-02-01Option Exercise12,6380.0002023-02-03 19:10:20
WWayfair Inc.Netzer ThomasChief Operating Officer2023-02-01Sell5,08269.14351,3612023-02-03 19:10:20
WWayfair Inc.Gulliver KateCFO and Chief Admin Officer2023-02-01Option Exercise2,9240.0002023-02-03 19:09:37
WWayfair Inc.Gulliver KateCFO and Chief Admin Officer2023-02-01Sell1,24469.4286,3652023-02-03 19:09:37
WWayfair Inc.Oblak SteveChief Commercial Officer2023-02-01Option Exercise6,5030.0002023-02-03 19:08:51
WWayfair Inc.Oblak SteveChief Commercial Officer2023-02-01Sell1,83569.23127,0392023-02-03 19:08:51
WWayfair Inc.Tan FionaChief Technology Officer2023-02-01Option Exercise6,3760.0002023-02-03 19:07:42
WWayfair Inc.Tan FionaChief Technology Officer2023-02-01Sell3,03869.24210,3452023-02-03 19:07:42
ANETArista Networks, Inc.Taxay MarcSVP and General Counsel2023-02-01Option Exercise1,04859.2762,1172023-02-03 19:04:38
ANETArista Networks, Inc.Taxay MarcSVP and General Counsel2023-02-01Sell1,048125.49131,5142023-02-03 19:04:38
ANETArista Networks, Inc.Giancarlo Charles HDirectior2023-02-01Sell2,000125.51251,0182023-02-03 19:04:13
WWayfair Inc.Schaferkordt AnkeDirectior2023-02-02Sell62469.6243,4462023-02-03 19:04:05
LDIloanDepot, Inc.Binowitz DanManaging Director2023-02-01Sell9,9992.8028,0402023-02-03 18:57:59
MEGMontrose Environmental Group, Inc.PERLMAN RICHARD EDirectior2023-02-02Sell52,58154.302,854,9922023-02-03 18:57:15
ADESAdvanced Emissions Solutions, Inc.Campbell-Breeden RichardDirectior2023-02-01Buy52,7424.00210,9682023-02-03 18:50:44
ADESAdvanced Emissions Solutions, Inc.McIntyre Julian AlexanderDirectior2023-02-01Buy1,203,6504.004,814,6002023-02-03 18:50:28
ADESAdvanced Emissions Solutions, Inc.Blank JeremyDirectior2023-02-01Buy631,8664.002,527,4642023-02-03 18:50:06
BXBlackstone Inc.Finley John GChief Legal Officer2023-02-02Sell40,000100.374,014,8002023-02-03 18:46:54
JAZZJazz Pharmaceuticals plcCOZADD BRUCE CChairman & CEO2023-02-01Sell1,000155.79155,7902023-02-03 18:45:35
BLKBlackRock Inc.Cohen StephenSenior Managing Director2023-02-03Sell390756.26294,9412023-02-03 18:42:46
SHLSShoals Technologies Group, Inc.Whitaker Jason RChief Executive Officer2023-02-01Sell24,06427.97673,1652023-02-03 18:41:22
CARACara Therapeutics, Inc.Posner ChristopherPresident and CEO2023-02-02Sell4,19111.8049,4542023-02-03 18:38:59
MRVLMarvell Technology, Inc.Jarnac Dean E Jr.EVP Worldwide Sales2023-02-01Sell6,00045.00270,0002023-02-03 18:38:30
AAPLApple Inc.WAGNER SUSANDirectior2023-02-01Option Exercise1,6850.0002023-02-03 18:38:12
AAPLApple Inc.SUGAR RONALD DDirectior2023-02-01Option Exercise1,6850.0002023-02-03 18:37:19
AAPLApple Inc.LOZANO MONICA CDirectior2023-02-01Option Exercise1,6850.0002023-02-03 18:36:23
AYROAYRO, Inc.WALKER WAYNE REMELLDirectior2023-01-30Sell4,0940.712,9112023-02-03 18:35:31
AAPLApple Inc.LEVINSON ARTHUR DDirectior2023-02-01Option Exercise1,6850.0002023-02-03 18:35:24
BLKBlackRock Inc.Wiedman MarkSenior Managing Director2023-02-02Sell3,233762.702,465,8062023-02-03 18:34:33
AAPLApple Inc.JUNG ANDREADirectior2023-02-01Option Exercise1,6850.0002023-02-03 18:34:25
AAPLApple Inc.Gorsky AlexDirectior2023-02-01Option Exercise1,6850.0002023-02-03 18:33:10
AYROAYRO, Inc.GIORDANO SEBASTIANDirectior2023-01-30Sell4,0940.712,9152023-02-03 18:32:18
AAPLApple Inc.GORE ALBERT JRDirectior2023-02-01Option Exercise1,6850.0002023-02-03 18:32:10
AAPLApple Inc.BELL JAMES ADirectior2023-02-01Option Exercise1,6850.0002023-02-03 18:31:15
AYROAYRO, Inc.DEVLIN GEORGEDirectior2023-01-30Sell4,0940.712,9132023-02-03 18:30:47
HOODRobinhood Markets, Inc.Tenev VladimirChief Executive Officer2023-02-01Option Exercise57,6330.0002023-02-03 18:29:37
HOODRobinhood Markets, Inc.Tenev VladimirChief Executive Officer2023-02-01Sell19,92311.28224,8112023-02-03 18:29:37
HOODRobinhood Markets, Inc.Quirk Steven M.Chief Brokerage Officer2023-02-01Option Exercise43,4030.0002023-02-03 18:29:18
AYROAYRO, Inc.Silverman JoshuaDirectior2023-01-30Sell7,1710.715,1082023-02-03 18:29:02
AYROAYRO, Inc.SCHIFFMAN GREGORY TDirectior2023-01-30Sell4,0940.712,9122023-02-03 18:28:56
HOODRobinhood Markets, Inc.Gallagher Daniel Martin JrChief Legal Officer2023-02-01Option Exercise102,5280.0002023-02-03 18:28:54
AMPLAmplitude, Inc.Liu CurtisChief Technology Officer 10% Owner2023-02-01Option Exercise23,8664.1999,9992023-02-03 18:28:29
HOODRobinhood Markets, Inc.Bhatt BaijuChief Creative Officer2023-02-01Option Exercise57,6330.0002023-02-03 18:28:28
HOODRobinhood Markets, Inc.Bhatt BaijuChief Creative Officer2023-02-01Sell19,91811.28224,7712023-02-03 18:28:28
BASECouchbase, Inc.Chow MargaretSVP & Chief Legal Officer2023-02-01Sell1,14814.7416,9222023-02-03 18:28:22
HOODRobinhood Markets, Inc.Treseder Oluwadara JohnsonDirectior2023-02-01Option Exercise5380.0002023-02-03 18:28:01
AYROAYRO, Inc.Joseph ZviDirectior2023-01-30Sell7,3690.715,2372023-02-03 18:27:20
BASECouchbase, Inc.Owen HuwSVP & Chief Revenue Officer2023-02-01Sell15,34515.72241,2832023-02-03 18:27:13
BLKBlackRock Inc.Kushel J. RichardSenior Managing Director2023-02-02Sell4,807766.823,686,0892023-02-03 18:26:46
BASECouchbase, Inc.Henry Gregory NSVP & Chief Financial Officer2023-02-01Sell10,41115.09157,1332023-02-03 18:25:57
OPENOpendoor Technologies Inc.Morillo DanielChief Investment Officer2023-02-02Sell182,3772.85519,5012023-02-03 18:25:56
OPENOpendoor Technologies Inc.Wu Eric Chung-WeiDirectior2023-02-02Sell411,2163.011,238,5832023-02-03 18:25:35
CPSSCONSUMER PORTFOLIO SERVICES, INC.BRADLEY CHARLES E JRCEO 10% Owner2023-02-01Option Exercise70,0016.86480,2072023-02-03 18:25:25
BWMNBowman Consulting Group Ltd.Hickey Robert AlanChief Legal Officer2023-02-01Sell5,00025.27126,3502023-02-03 18:24:24
HCAHCA Healthcare, Inc.RUTHERFORD BILL BCFO and EVP2023-02-01Option Exercise64,00069.224,430,1802023-02-03 18:22:08
HCAHCA Healthcare, Inc.RUTHERFORD BILL BCFO and EVP2023-02-01Sell30,000258.197,745,5682023-02-03 18:22:08
BWMNBowman Consulting Group Ltd.Bowman GaryPresident, CEO and Chairman2023-02-01Sell13,00025.17327,2122023-02-03 18:20:16
VRNAVerona Pharma plcHahn Mark WChief Financial Officer2023-02-01Sell413,1682.561,056,5532023-02-03 18:19:42
MGMMGM Resorts InternationalSANDERS COREY IANCHIEF OPERATING OFFICER2023-02-01Sell30,00042.001,260,0002023-02-03 18:19:25
MEECMidwest Energy Emissions Corp.Kaye David MSecretary2023-02-01Option Exercise250,0000.1947,5002023-02-03 18:18:21
ITRIITRON, INC.Reeves Donald L. IIISVP, Outcomes2023-02-02Sell1,00060.0060,0002023-02-03 18:18:20
VRNAVerona Pharma plcZACCARDELLI DAVIDPresident and CEO2023-02-01Sell432,9282.561,107,0842023-02-03 18:18:16
MGMMGM Resorts InternationalHalkyard Jonathan SCHIEF FINANCIAL OFFICER2023-02-01Option Exercise7,6910.0002023-02-03 18:17:26
VRNAVerona Pharma plcRickard Kathleen A.Chief Medical Officer2023-01-20Option Exercise105,0000.0002023-02-03 18:17:05
VRNAVerona Pharma plcRickard Kathleen A.Chief Medical Officer2023-01-20Sell118,7122.55302,7312023-02-03 18:17:05
VRNAVerona Pharma plcPoll ClaireGeneral Counsel2023-01-20Option Exercise178,8000.0002023-02-03 18:15:45
VRNAVerona Pharma plcPoll ClaireGeneral Counsel2023-01-20Sell152,0002.59394,2732023-02-03 18:15:45
OSHOak Street Health, Inc.COOK TIMOTHY MChief Financial Officer2023-02-02Sell1,48028.4942,1612023-02-03 18:15:10
ITRIITRON, INC.Marcolini John F.SVP, Networked Solutions2023-02-02Sell1,37660.0082,5602023-02-03 18:14:29
METAMeta Platforms, Inc.Newstead JenniferChief Legal Officer2023-02-01Sell342148.0050,6162023-02-03 18:12:44
PDPagerDuty, Inc.WEBB SHELLEYSVP and General Counsel2023-02-01Sell1,98330.0559,5892023-02-03 18:12:33
VRDNViridian Therapeutics, Inc.DEViolin JonathanChief Executive Officer2023-02-02Sell50,00036.801,840,0002023-02-03 18:12:08
LLAPTerran Orbital CorpBeach Point Capital Management LP 10% Owner2023-02-03Sell7,8032.0115,6842023-02-03 18:10:43
MEECMidwest Energy Emissions Corp.MacPherson RichardPresident and CEO 10% Owner2023-02-01Option Exercise250,0000.2870,0002023-02-03 18:10:16
TNETTRINET GROUP, INC.Chamberlain Paul EdwardDirectior2023-02-01Sell12575.089,3852023-02-03 18:08:40
EXPEAGLE MATERIALS INCThompson TonySenior Vice President2023-02-02Option Exercise2,80360.21168,7692023-02-03 18:06:56
EXPEAGLE MATERIALS INCThompson TonySenior Vice President2023-02-02Sell2,803150.00420,4502023-02-03 18:06:56
EXPEAGLE MATERIALS INCCribbs EricExecutive Vice President2023-01-31Sell1,091145.46158,6972023-02-03 18:06:08
DTDynatrace, Inc.Pace Stephen J.Chief Revenue Officer2023-02-03Option Exercise39,53016.00632,4802023-02-03 18:05:36
DTDynatrace, Inc.Pace Stephen J.Chief Revenue Officer2023-02-03Sell47,38046.112,184,6662023-02-03 18:05:36
MEECMidwest Energy Emissions Corp.Greenberg ChristopherChairman of the Board2023-02-01Option Exercise850,0000.25209,5002023-02-03 18:03:06
AFRMAffirm Holdings, Inc.Michalek LiborPresident2023-02-01Option Exercise2,3350.0002023-02-03 18:01:54
AFRMAffirm Holdings, Inc.Jiyane SipheleleVice President, Controller2023-02-01Option Exercise2,6370.0002023-02-03 18:01:33
TERNTerns Pharmaceuticals, Inc.Yoon Seokho BryanCOO and General Counsel2023-02-01Buy31.4142023-02-03 18:01:25
AFRMAffirm Holdings, Inc.Linford MichaelChief Financial Officer2023-02-01Option Exercise2,3350.0002023-02-03 18:01:15
TERNTerns Pharmaceuticals, Inc.Vignola Mark J.Chief Financial Officer2023-02-01Buy31.4142023-02-03 18:01:08
LYFTLyft, Inc.Wilderotter Mary AgnesDirectior2023-02-01Sell1,82616.6530,4032023-02-03 18:01:00
OSHOak Street Health, Inc.GUENTHNER ROBERTChief Legal Officer2023-02-02Sell59228.8517,0772023-02-03 18:00:59
TERNTerns Pharmaceuticals, Inc.Sundaram Senthil VelChief Executive Officer2023-02-01Buy31.4142023-02-03 18:00:56
AFRMAffirm Holdings, Inc.Adkins KatherineChief Legal Officer2023-02-01Option Exercise6,7830.0002023-02-03 18:00:46
AVTEAerovate Therapeutics, Inc.NOYES TIMOTHY PCHIEF EXECUTIVE OFFICER2023-02-01Option Exercise15,0002.1432,1002023-02-03 18:00:21
AVTEAerovate Therapeutics, Inc.NOYES TIMOTHY PCHIEF EXECUTIVE OFFICER2023-02-01Sell15,00022.68340,1972023-02-03 18:00:21
AFRMAffirm Holdings, Inc.Rabois KeithDirectior2023-02-01Sell17,28716.71288,7912023-02-03 18:00:15
PHMPULTEGROUP INC/MI/O'Meara Brien P.Vice President & Controller2023-02-01Sell4,92460.00295,4552023-02-03 17:59:49
MGRCMCGRATH RENTCORPPorter Stuart TempletonVP and Division Manager2023-02-01Option Exercise1,6160.0002023-02-03 17:59:45
LLAPTerran Orbital CorpBeach Point Capital Management LP 10% Owner2023-02-03Sell28,3242.0156,9312023-02-03 17:58:18
TRUPTRUPANION, INC.Friedman GavinEVP, Legal and Regulatory2023-02-01Sell50058.7329,3652023-02-03 17:55:22
SNASnap-on IncBoyd IainVP - Operations Development2023-02-02Option Exercise15,900155.692,475,4162023-02-03 17:54:41
SNASnap-on IncBoyd IainVP - Operations Development2023-02-02Sell15,900259.074,119,1522023-02-03 17:54:41
VVISA INC.Taneja RajatPRESIDENT, TECHNOLOGY2023-02-03Option Exercise61,72153.633,310,4062023-02-03 17:51:00
VVISA INC.Taneja RajatPRESIDENT, TECHNOLOGY2023-02-03Sell61,721229.9214,190,9972023-02-03 17:51:00
FHNFIRST HORIZON CORPAKINS TERRY LAWSONSr. EVP, Chief Risk Officer2023-02-02Option Exercise4,69416.0175,1512023-02-03 17:50:23
FHNFIRST HORIZON CORPAKINS TERRY LAWSONSr. EVP, Chief Risk Officer2023-02-02Sell4,69424.67115,8202023-02-03 17:50:23
AHCOAdaptHealth Corp.Everest Hill Group Inc.2023-01-31Sell100,00021.002,100,0002023-02-03 17:49:00
CGCarlyle Group Inc.Finn ChristopherChief Operating Officer2023-02-01Sell11,09636.36403,4512023-02-03 17:48:52
HAHAWAIIAN HOLDINGS INCAlter Aaron JExec VP & Chief Legal Officer2023-02-02Sell3,00011.5734,7142023-02-03 17:46:40
FOLDAMICUS THERAPEUTICS, INC.Crowley John FExecutive Chairman2023-02-01Option Exercise139,9295.71798,6692023-02-03 17:46:35
FOLDAMICUS THERAPEUTICS, INC.Crowley John FExecutive Chairman2023-02-01Sell147,31613.111,931,3422023-02-03 17:46:35
ALNYALNYLAM PHARMACEUTICALS, INC.Franchini Indrani LallEVP, CLO & Secretary2023-02-01Option Exercise5,1750.0002023-02-03 17:46:11
ALNYALNYLAM PHARMACEUTICALS, INC.Franchini Indrani LallEVP, CLO & Secretary2023-02-01Sell1,675226.01378,5632023-02-03 17:46:11
AUGGAUGUSTA GOLD CORP.EARLE DANIELDirectior2023-02-03Buy36,8001.0237,5362023-02-03 17:46:06
ALNYALNYLAM PHARMACEUTICALS, INC.Tanguler TolgaEVP, Chief Commercial Officer2023-02-01Option Exercise5,0250.0002023-02-03 17:45:42
ALNYALNYLAM PHARMACEUTICALS, INC.Tanguler TolgaEVP, Chief Commercial Officer2023-02-01Sell5,025230.191,156,6922023-02-03 17:45:42
SNASnap-on IncChambers Timothy LSr VP & Pres - Tools2023-02-02Option Exercise7,000109.43766,0102023-02-03 17:44:14
SNASnap-on IncChambers Timothy LSr VP & Pres - Tools2023-02-02Sell7,000259.071,813,5132023-02-03 17:44:14
CGCarlyle Group Inc.Buser Curtis L.Chief Financial Officer2023-02-01Sell10,39536.36377,9622023-02-03 17:43:05
DLRDIGITAL REALTY TRUST, INC.Lee JeannieEVP, GENERAL COUNSEL2023-02-01Sell1,000115.00115,0002023-02-03 17:42:41
FOLDAMICUS THERAPEUTICS, INC.Campbell Bradley LPresident & CEO2023-02-01Option Exercise11,7002.4528,6652023-02-03 17:42:29
FOLDAMICUS THERAPEUTICS, INC.Campbell Bradley LPresident & CEO2023-02-01Sell20,00012.98259,5082023-02-03 17:42:29